When you browse on this site, cookies collect data to enhance your experience and personalize the content and advertising you see.
Visit our Privacy Policy to learn more. By continuing to use the site, you agree to this use of cookies and data.
  • In Spain
  • List of Countries
  • For 7 days
  • Water Temperature
  • Satellite Maps
  • Weather Map
  • Weather Widgets
  • user-avatar
    Login

    Hourly Weather Rebordosa

    Today, 18 January, Friday

    Time Temperature Precipitation Wind Pressure Humidity
    00:00 +5°C° 0 mm 1 mps 736 mmHg 79%
    01:00 +5°C° 0 mm 1 mps 736 mmHg 78%
    02:00 +5°C° 0 mm 1 mps 736 mmHg 78%
    03:00 +5°C° 0 mm 1 mps 736 mmHg 78%
    04:00 +4°C° 0 mm 0 mps 735 mmHg 78%
    05:00 +3°C° 0 mm 0 mps 735 mmHg 79%
    06:00 +4°C° 0 mm 0 mps 735 mmHg 77%
    07:00 +5°C° 0 mm 1 mps 735 mmHg 75%
    08:00 +6°C° 0 mm 1 mps 736 mmHg 73%
    09:00 +7°C° 0.3 mm 1 mps 735 mmHg 74%
    10:00 +7°C° 0.3 mm 1 mps 735 mmHg 75%
    11:00 +8°C° 0.3 mm 1 mps 735 mmHg 76%
    12:00 +8°C° 0.1 mm 1 mps 735 mmHg 77%
    13:00 +8°C° 0.1 mm 1 mps 734 mmHg 77%
    14:00 +9°C° 0.1 mm 1 mps 734 mmHg 78%
    15:00 +8°C° 0 mm 1 mps 734 mmHg 81%
    16:00 +7°C° 0 mm 1 mps 734 mmHg 84%
    17:00 +7°C° 0 mm 1 mps 734 mmHg 87%
    18:00 +7°C° 0 mm 1 mps 734 mmHg 87%
    19:00 +6°C° 0 mm 1 mps 734 mmHg 87%
    20:00 +6°C° 0 mm 1 mps 734 mmHg 86%
    21:00 +7°C° 0 mm 1 mps 734 mmHg 86%
    22:00 +7°C° 0 mm 1 mps 734 mmHg 85%
    23:00 +7°C° 0 mm 1 mps 733 mmHg 84%

    Tomorrow, 19 January, Saturday

    Time Temperature Precipitation Wind Pressure Humidity
    00:00 +6°C° 0.2 mm 2 mps 733 mmHg 84%
    01:00 +6°C° 0.2 mm 2 mps 733 mmHg 85%
    02:00 +7°C° 0.2 mm 2 mps 732 mmHg 86%
    03:00 +7°C° 0.9 mm 3 mps 732 mmHg 89%
    04:00 +7°C° 0.9 mm 3 mps 731 mmHg 91%
    05:00 +7°C° 0.9 mm 3 mps 731 mmHg 94%
    06:00 +8°C° 2 mm 3 mps 731 mmHg 95%
    07:00 +8°C° 2 mm 4 mps 730 mmHg 97%
    08:00 +10°C° 2 mm 4 mps 730 mmHg 98%
    09:00 +9°C° 3.4 mm 5 mps 730 mmHg 98%
    10:00 +9°C° 3.4 mm 5 mps 729 mmHg 97%
    11:00 +10°C° 3.4 mm 6 mps 729 mmHg 97%
    12:00 +10°C° 0.9 mm 5 mps 728 mmHg 94%
    13:00 +12°C° 0.9 mm 5 mps 728 mmHg 90%
    14:00 +12°C° 0.9 mm 5 mps 727 mmHg 87%
    15:00 +12°C° 1 mm 5 mps 727 mmHg 89%
    16:00 +11°C° 1 mm 4 mps 727 mmHg 92%
    17:00 +11°C° 1 mm 4 mps 727 mmHg 94%
    18:00 +10°C° 0.3 mm 3 mps 728 mmHg 95%
    19:00 +10°C° 0.3 mm 3 mps 729 mmHg 95%
    20:00 +9°C° 0.3 mm 3 mps 729 mmHg 96%
    21:00 +9°C° 0 mm 3 mps 730 mmHg 94%
    22:00 +9°C° 0 mm 3 mps 730 mmHg 93%
    23:00 +8°C° 0 mm 3 mps 731 mmHg 91%

    Day after tomorrow, 20 January, Sunday

    Time Temperature Precipitation Wind Pressure Humidity
    00:00 +8°C° 0 mm 3 mps 731 mmHg 90%
    01:00 +7°C° 0 mm 3 mps 732 mmHg 89%
    02:00 +7°C° 0 mm 3 mps 732 mmHg 88%
    03:00 +5°C° 0 mm 3 mps 732 mmHg 88%
    04:00 +6°C° 0 mm 2 mps 733 mmHg 88%
    05:00 +5°C° 0 mm 2 mps 733 mmHg 88%
    06:00 +5°C° 0 mm 2 mps 734 mmHg 87%
    07:00 +5°C° 0 mm 2 mps 735 mmHg 87%
    08:00 +7°C° 0 mm 1 mps 735 mmHg 86%
    09:00 +7°C° 0 mm 2 mps 736 mmHg 80%
    10:00 +8°C° 0 mm 2 mps 736 mmHg 75%
    11:00 +10°C° 0 mm 3 mps 736 mmHg 69%
    12:00 +10°C° 0 mm 3 mps 736 mmHg 67%
    13:00 +11°C° 0 mm 4 mps 736 mmHg 64%
    14:00 +11°C° 0 mm 4 mps 736 mmHg 62%
    15:00 +10°C° 0 mm 4 mps 736 mmHg 67%
    16:00 +8°C° 0 mm 4 mps 737 mmHg 71%
    17:00 +8°C° 0 mm 3 mps 737 mmHg 76%
    18:00 +7°C° 0 mm 3 mps 737 mmHg 79%
    19:00 +5°C° 0 mm 3 mps 738 mmHg 82%
    20:00 +6°C° 0 mm 2 mps 738 mmHg 85%
    21:00 +6°C° 0 mm 2 mps 739 mmHg 86%
    22:00 +5°C° 0 mm 2 mps 739 mmHg 87%
    23:00 +5°C° 0 mm 2 mps 739 mmHg 88%

    21 January, Monday

    Time Temperature Precipitation Wind Pressure Humidity
    00:00 +5°C° 0 mm 2 mps 739 mmHg 89%
    01:00 +5°C° 0 mm 2 mps 739 mmHg 89%
    02:00 +4°C° 0 mm 2 mps 739 mmHg 89%
    03:00 +4°C° 0 mm 2 mps 739 mmHg 90%
    04:00 +4°C° 0 mm 2 mps 739 mmHg 90%
    05:00 +4°C° 0 mm 2 mps 740 mmHg 90%
    06:00 +4°C° 0 mm 2 mps 740 mmHg 88%
    07:00 +5°C° 0 mm 2 mps 740 mmHg 87%
    08:00 +5°C° 0 mm 2 mps 741 mmHg 85%
    09:00 +7°C° 0 mm 2 mps 741 mmHg 77%
    10:00 +8°C° 0 mm 2 mps 741 mmHg 68%
    11:00 +10°C° 0 mm 3 mps 741 mmHg 60%
    12:00 +11°C° 0 mm 3 mps 741 mmHg 57%
    13:00 +11°C° 0 mm 3 mps 740 mmHg 55%
    14:00 +12°C° 0 mm 3 mps 740 mmHg 53%
    15:00 +10°C° 0 mm 3 mps 740 mmHg 58%
    16:00 +9°C° 0 mm 3 mps 740 mmHg 64%
    17:00 +7°C° 0 mm 2 mps 741 mmHg 69%
    18:00 +7°C° 0 mm 2 mps 741 mmHg 73%
    19:00 +6°C° 0 mm 2 mps 741 mmHg 77%
    20:00 +5°C° 0 mm 2 mps 742 mmHg 80%
    21:00 +5°C° 0 mm 2 mps 741 mmHg 82%
    22:00 +5°C° 0 mm 2 mps 741 mmHg 83%
    23:00 +5°C° 0 mm 1 mps 741 mmHg 84%

    22 January, Tuesday

    Time Temperature Precipitation Wind Pressure Humidity
    00:00 +5°C° 0 mm 1 mps 741 mmHg 85%
    01:00 +5°C° 0 mm 1 mps 741 mmHg 86%
    02:00 +5°C° 0 mm 1 mps 741 mmHg 87%
    03:00 +5°C° 0 mm 1 mps 740 mmHg 88%
    04:00 +4°C° 0 mm 1 mps 740 mmHg 88%
    05:00 +4°C° 0 mm 1 mps 740 mmHg 88%
    06:00 +5°C° 0 mm 1 mps 740 mmHg 87%
    07:00 +5°C° 0 mm 1 mps 739 mmHg 86%
    08:00 +6°C° 0 mm 1 mps 739 mmHg 86%
    09:00 +5°C° 1 mm 2 mps 739 mmHg 89%
    10:00 +6°C° 1 mm 2 mps 739 mmHg 92%
    11:00 +7°C° 1 mm 3 mps 738 mmHg 95%
    12:00 +6°C° 0.2 mm 4 mps 738 mmHg 87%
    13:00 +7°C° 0.2 mm 5 mps 737 mmHg 80%
    14:00 +8°C° 0.2 mm 6 mps 737 mmHg 72%
    15:00 +7°C° 0 mm 5 mps 737 mmHg 74%
    16:00 +6°C° 0 mm 5 mps 737 mmHg 77%
    17:00 +6°C° 0 mm 4 mps 737 mmHg 80%
    18:00 +5°C° 0 mm 4 mps 737 mmHg 82%
    19:00 +5°C° 0 mm 4 mps 737 mmHg 85%
    20:00 +5°C° 0 mm 3 mps 737 mmHg 87%
    21:00 +5°C° 0.1 mm 3 mps 737 mmHg 88%
    22:00 +7°C° 0.1 mm 3 mps 736 mmHg 90%
    23:00 +7°C° 0.1 mm 3 mps 736 mmHg 92%

    23 January, Wednesday

    Time Temperature Precipitation Wind Pressure Humidity
    00:00 +7°C° 0.2 mm 4 mps 736 mmHg 91%
    01:00 +7°C° 0.2 mm 5 mps 735 mmHg 90%
    02:00 +8°C° 0.2 mm 6 mps 735 mmHg 89%
    03:00 +8°C° 0.3 mm 6 mps 734 mmHg 89%
    04:00 +8°C° 0.3 mm 6 mps 734 mmHg 89%
    05:00 +8°C° 0.3 mm 6 mps 733 mmHg 89%
    06:00 +8°C° 0.1 mm 6 mps 733 mmHg 89%
    07:00 +8°C° 0.1 mm 6 mps 733 mmHg 90%
    08:00 +8°C° 0.1 mm 5 mps 733 mmHg 91%
    09:00 +8°C° 0.2 mm 6 mps 733 mmHg 89%
    10:00 +9°C° 0.2 mm 6 mps 733 mmHg 88%
    11:00 +9°C° 0.2 mm 6 mps 733 mmHg 87%
    12:00 +9°C° 0.2 mm 6 mps 732 mmHg 87%
    13:00 +9°C° 0.2 mm 6 mps 732 mmHg 87%
    14:00 +9°C° 0.2 mm 7 mps 731 mmHg 87%
    15:00 +9°C° 0.4 mm 6 mps 731 mmHg 89%
    16:00 +9°C° 0.4 mm 6 mps 730 mmHg 91%
    17:00 +9°C° 0.4 mm 6 mps 730 mmHg 93%
    18:00 +9°C° 0.3 mm 6 mps 730 mmHg 93%
    19:00 +9°C° 0.3 mm 6 mps 730 mmHg 93%
    20:00 +9°C° 0.3 mm 6 mps 730 mmHg 93%
    21:00 +9°C° 0.2 mm 5 mps 729 mmHg 93%
    22:00 +9°C° 0.2 mm 5 mps 729 mmHg 92%
    23:00 +9°C° 0.2 mm 5 mps 729 mmHg 92%
    Show more